Weather History for Yeovilton, United Kingdom

Change the Weather History Date:

Monday, November 11, 2013

  Actual Average Record
Temperature  
Mean Temperature 50 °F -  
Max Temperature 58 °F 48 °F 59 °F (2010)
Min Temperature 42 °F 37 °F 28 °F (2012)
Degree Days  
Heating Degree Days 15    
Moisture  
Dew Point 54 °F    
Average Humidity 94    
Maximum Humidity 100    
Minimum Humidity 74    
Precipitation  
Precipitation 0.00 in - - ()
Sea Level Pressure  
Sea Level Pressure 30.14 in    
Wind  
Wind Speed 8 mph ()    
Max Wind Speed 13 mph    
Max Gust Speed -    
Visibility 4.3 miles    
Events Rain    
Averages and records for this station are not official NWS values.
T = Trace of Precipitation, MM = Missing Value Source: Averaged Metar Reports

Daily Weather History Graph

Daily Weather History Graph

Search for Another Location

Airport:

Trip Planner

Search our weather history database for the weather conditions in past years. The results will help you decide how hot, cold, wet, or windy it might be!

Date:

Astronomy

Nov. 11, 2013 Rise Set
Actual Time 7:20 AM GMT 4:28 PM GMT
Civil Twilight 6:44 AM GMT 5:04 PM GMT
Nautical Twilight 6:04 AM GMT 5:44 PM GMT
Astronomical Twilight 5:25 AM GMT 6:22 PM GMT
Moon 1:38 PM GMT (11/11) 12:07 AM GMT (11/11)
Length of Visible Light 10h 20m
Length of Day
9h 08m
Waxing Gibbous, 64% of the Moon is Illuminated
Nov 11
Waxing Gibbous
Nov 17
Full
Nov 25
Last Quarter
Dec 3
New
Dec 9
First Quarter

Hourly Weather History & Observations

Time (GMT) Temp. Dew Point Humidity Pressure Visibility Wind Dir Wind Speed Gust Speed Precip Events Conditions
12:00 AM 48 °F 42 °F 74% 30.22 in 31 mi SE 8.1 mph - - Rain Rain
12:50 AM 48.2 °F 42.8 °F 82% 30.18 in 6.2 mi SSE 8.1 mph - N/A Rain Rain Showers
1:50 AM 48.2 °F 44.6 °F 87% 30.18 in 6.2 mi SSE 12.7 mph - N/A Rain Light Rain
2:50 AM 50.0 °F 48.2 °F 94% 30.15 in 3.1 mi SSE 10.4 mph - N/A Rain Light Rain
3:00 AM 49 °F 48 °F 95% 30.17 in 3 mi SSE 10.4 mph - - Rain Light Rain
3:50 AM 50.0 °F 48.2 °F 94% 30.12 in 3.1 mi SSE 10.4 mph - N/A Rain Light Rain
4:50 AM 51.8 °F 50.0 °F 94% 30.12 in 3.1 mi SSE 10.4 mph - N/A Rain Light Rain
5:50 AM 53.6 °F 51.8 °F 94% 30.09 in 3.7 mi SSE 12.7 mph - N/A Rain Light Rain
6:00 AM 53 °F 52 °F 95% 30.12 in 4 mi SSE 12.7 mph - - Rain Light Rain
6:50 AM 55.4 °F 53.6 °F 94% 30.09 in 2.5 mi South 10.4 mph - N/A Rain Light Rain
7:50 AM 55.4 °F 53.6 °F 94% 30.09 in 2.5 mi SSE 9.2 mph - N/A Rain Light Rain
8:34 AM 55.4 °F 55.4 °F 100% 30.12 in 2.2 mi South 6.9 mph - N/A Rain Light Rain
8:50 AM 55.4 °F 55.4 °F 100% 30.12 in 2.5 mi South 8.1 mph - N/A Rain Light Rain
9:00 AM 56 °F 55 °F 97% 30.12 in 2 mi South 8.1 mph - - Rain Light Rain
9:50 AM 57.2 °F 55.4 °F 94% 30.12 in 3.1 mi South 8.1 mph - N/A   Light Drizzle
10:50 AM 57.2 °F 55.4 °F 94% 30.12 in 5.0 mi South 9.2 mph - N/A   Scattered Clouds
11:50 AM 57.2 °F 57.2 °F 100% 30.12 in 6.2 mi SSW 9.2 mph - N/A   Mostly Cloudy
12:00 PM 58 °F 56 °F 92% 30.14 in 6 mi SSW 9.2 mph - -   Partly Cloudy
12:50 PM 59.0 °F 57.2 °F 94% 30.12 in 6.2 mi SSW 6.9 mph - N/A   Mostly Cloudy
1:05 PM 59.0 °F 57.2 °F 94% 30.12 in 6.2 mi SSW 6.9 mph - N/A   Mostly Cloudy
1:50 PM 57.2 °F 57.2 °F 100% 30.12 in 2.8 mi SSW 5.8 mph - N/A Rain Light Rain
2:50 PM 59.0 °F 57.2 °F 94% 30.12 in 6.2 mi South 6.9 mph - N/A   Mostly Cloudy
3:00 PM 58 °F 57 °F 94% 30.13 in 6 mi South 6.9 mph - - Rain Light Rain
3:50 PM 59.0 °F 57.2 °F 94% 30.12 in 6.2 mi SW 5.8 mph - N/A   Mostly Cloudy
4:50 PM 59.0 °F 55.4 °F 88% 30.15 in 6.2 mi WSW 5.8 mph - N/A   Overcast
5:50 PM 57.2 °F 55.4 °F 94% 30.15 in 1.9 mi WNW 5.8 mph - N/A Rain Light Rain
6:00 PM 57 °F 56 °F 96% 30.18 in 2 mi WNW 5.8 mph - - Rain Light Rain
6:50 PM 57.2 °F 57.2 °F 100% 30.18 in 2.5 mi WSW 3.5 mph - N/A Rain Light Rain
7:50 PM 57.2 °F 57.2 °F 100% 30.18 in 3.1 mi SW 2.3 mph - N/A Rain Light Rain
8:50 PM 57.2 °F 55.4 °F 94% 30.18 in 5.0 mi West 5.8 mph - N/A Rain Light Rain
9:00 PM 56 °F 55 °F 96% 30.20 in 5 mi West 5.8 mph - - Rain Light Rain
9:50 PM 55.4 °F 53.6 °F 94% 30.18 in 6.2 mi WSW 4.6 mph - N/A   Mostly Cloudy
10:50 PM 55.4 °F 53.6 °F 94% 30.18 in 6.2 mi SSW 4.6 mph - N/A   Overcast
11:50 PM 55.4 °F 53.6 °F 94% 30.18 in 6.2 mi SSW 3.5 mph - N/A   Overcast